User: anonymous   Login
Location: Maiden
(35.5760°N, 81.2120°W)
Time: 04:23:15
(UTC-04:00)
Language:

Cosmos 2151 - Orbit

View from above orbital plane
View from above orbital plane
View from above satellite
View from above satellite

Ground track
Ground track

The orbit data is extracted from the following two-line orbital elements,

1 21422U 91042A   18145.46065055  .00000142  00000-0  11468-4 0  9998
2 21422  82.5000 280.6962 0013068 227.2342 132.7779 14.91952954459532
Epoch (UTC): 25 May 2018 11:03:20
Eccentricity: 0.0013068
inclination: 82.5000°
perigee height: 583 km
apogee height: 601 km
right ascension of ascending node: 280.6962°
argument of perigee: 227.2342°
revolutions per day: 14.91952954
mean anomaly at epoch: 132.7779°
orbit number at epoch: 45953

The dashed part of the orbit path shows where the satellite is in the earth's shadow,  

DLR